VK4AB-13 Weather Reports


time (UTC)temp
F
wind
direction
speed
knots
gust
knots
rain 1hr
in
rain 24hr
in
rain mn
in
humidity
%
barometer
mb
20260505003847 78 222 0.9 2.6 0.00 0.01 0.01 70 1016.9
20260505003347 78 222 0.9 1.7 0.00 0.01 0.01 70 1016.9
20260505002847 78 222 0.9 3.5 0.00 0.01 0.01 70 1017.0
20260505002347 78 222 0.9 3.5 0.00 0.01 0.01 71 1017.0
20260505001847 77 222 0.9 1.7 0.00 0.01 0.01 72 1017.1
20260505001347 77 222 0.9 2.6 0.00 0.01 0.01 72 1017.1
20260505000847 77 222 1.7 3.5 0.00 0.01 0.01 73 1017.1
20260505000347 77 222 1.7 4.3 0.00 0.01 0.01 73 1017.1
20260504235847 77 220 1.7 3.5 0.00 0.01 0.01 74 1017.1
20260504235347 77 221 1.7 3.5 0.00 0.01 0.01 74 1017.2
20260504234847 77 222 1.7 3.5 0.00 0.01 0.01 74 1017.3
20260504234347 77 221 1.7 6.1 0.00 0.01 0.01 76 1017.4
20260504233847 76 96 1.7 3.5 0.00 0.01 0.01 76 1017.5
20260504233347 75 91 1.7 3.5 0.00 0.01 0.01 79 1017.5
20260504232847 75 90 0.9 3.5 0.00 0.01 0.01 81 1017.4
20260504232347 74 90 0.9 2.6 0.00 0.01 0.01 83 1017.5
20260504231847 73 90 0.9 3.5 0.00 0.01 0.01 84 1017.5
20260504231347 73 90 0.9 2.6 0.00 0.01 0.01 86 1017.5
20260504230847 72 90 1.7 2.6 0.00 0.01 0.01 88 1017.6
20260504230347 71 90 0.9 3.5 0.00 0.01 0.01 89 1017.6
20260504225847 71 90 0.9 0.0 0.00 0.01 0.01 91 1017.6
20260504225347 70 90 1.7 3.5 0.00 0.01 0.01 92 1017.6
20260504224847 70 90 1.7 2.6 0.00 0.01 0.01 93 1017.6
20260504224347 69 90 0.9 3.5 0.00 0.01 0.01 94 1017.6
20260504223847 69 90 0.9 2.6 0.00 0.01 0.01 94 1017.7
20260504223546 69 90 0.9 2.6 0.00 0.01 0.01 95 1017.7
20260504223347 69 90 0.9 2.6 0.00 0.01 0.01 95 1017.7
20260504222847 68 90 0.9 1.7 0.00 0.01 0.01 95 1017.6
20260504222348 68 86 0.9 1.7 0.00 0.01 0.01 95 1017.7
20260504221847 67 90 0.9 1.7 0.00 0.01 0.01 95 1017.7
20260504221348 67 90 0.9 1.7 0.00 0.01 0.01 95 1017.6
20260504220848 67 90 1.7 3.5 0.00 0.01 0.01 95 1017.7
20260504220348 67 90 0.9 3.5 0.00 0.01 0.01 95 1017.7
20260504215848 67 95 0.9 3.5 0.01 0.01 0.01 96 1017.7
20260504215348 67 95 0.9 3.5 0.01 0.01 0.01 96 1017.6
20260504214848 67 92 0.9 1.7 0.01 0.01 0.01 96 1017.5
20260504214348 66 96 0.9 1.7 0.01 0.01 0.01 96 1017.4
20260504213848 66 96 0.0 1.7 0.01 0.01 0.01 97 1017.5
20260504213348 65 96 0.0 0.0 0.01 0.01 0.01 97 1017.4
20260504212848 65 96 0.0 0.9 0.01 0.01 0.01 96 1017.3
20260504212348 64 96 0.0 0.9 0.01 0.01 0.01 96 1017.3
20260504211848 64 96 0.0 0.0 0.01 0.01 0.01 96 1017.3
20260504211838 63 96 0.0 0.0 0.01 0.01 0.01 95 1017.2
20260504211348 64 96 0.0 0.0 0.01 0.01 0.01 95 1017.3
20260504210848 63 96 0.0 0.0 0.01 0.01 0.01 95 1017.2
20260504210348 63 96 0.0 0.0 0.01 0.01 0.01 95 1017.2
20260504210038 63 96 0.0 0.0 0.00 0.00 0.00 95 1017.1
20260504205848 63 96 0.0 0.0 0.00 0.00 0.00 95 1017.2
20260504205348 63 96 0.0 0.0 0.00 0.00 0.00 95 1017.1
20260504204848 63 96 0.0 0.0 0.00 0.00 0.00 95 1017.0
20260504204348 63 96 0.0 0.0 0.00 0.00 0.00 95 1017.0
20260504204335 63 96 0.0 0.0 0.00 0.00 0.00 94 1016.9
20260504203848 63 96 0.0 0.0 0.00 0.00 0.00 94 1016.9
20260504203348 63 96 0.0 0.0 0.00 0.00 0.00 94 1016.9
20260504202848 63 96 0.0 0.0 0.00 0.00 0.00 94 1017.0
20260504202348 63 96 0.0 0.0 0.00 0.00 0.00 94 1016.8
20260504201848 63 96 0.0 0.0 0.00 0.00 0.00 94 1016.9
20260504201634 63 96 0.0 0.0 0.00 0.00 0.00 94 1016.8
20260504201348 63 96 0.0 0.0 0.00 0.00 0.00 94 1016.8
20260504201138 63 96 0.0 0.0 0.00 0.00 0.00 94 1016.9
20260504200848 63 96 0.0 0.0 0.00 0.00 0.00 94 1016.9
20260504200348 63 96 0.0 0.0 0.00 0.00 0.00 94 1016.8
20260504195848 63 96 0.0 0.0 0.00 0.00 0.00 94 1016.7
20260504195535 62 96 0.0 0.0 0.00 0.00 0.00 94 1016.6
20260504195348 63 96 0.0 0.0 0.00 0.00 0.00 94 1016.8
20260504194848 63 96 0.0 0.0 0.00 0.00 0.00 94 1016.7
20260504194348 62 96 0.0 0.0 0.00 0.00 0.00 94 1016.6
20260504193848 62 96 0.0 0.0 0.00 0.00 0.00 94 1016.5
20260504193640 63 96 0.0 0.0 0.00 0.00 0.00 94 1016.4
20260504193348 62 96 0.0 0.0 0.00 0.00 0.00 94 1016.3
20260504192848 63 96 0.0 0.0 0.00 0.00 0.00 94 1016.4
20260504192535 63 96 0.0 0.0 0.00 0.00 0.00 94 1016.2
20260504192348 63 96 0.0 0.0 0.00 0.00 0.00 94 1016.2
20260504191848 63 96 0.0 0.0 0.00 0.00 0.00 94 1016.2
20260504191348 63 96 0.0 0.0 0.00 0.00 0.00 94 1016.2
20260504190848 63 96 0.0 0.0 0.00 0.00 0.00 94 1016.1
20260504190348 63 96 0.0 0.0 0.00 0.00 0.00 94 1016.1
20260504185848 63 96 0.0 0.0 0.00 0.00 0.00 94 1016.1
20260504185348 63 96 0.0 0.0 0.00 0.00 0.00 94 1016.0
20260504184944 63 96 0.0 0.0 0.00 0.00 0.00 94 1016.0
20260504184848 63 96 0.0 0.0 0.00 0.00 0.00 94 1016.0
20260504184643 63 96 0.0 0.0 0.00 0.00 0.00 94 1016.0
20260504184348 63 96 0.0 0.0 0.00 0.00 0.00 94 1016.0
20260504183848 63 96 0.0 0.0 0.00 0.00 0.00 94 1016.0
20260504183443 63 96 0.0 0.0 0.00 0.00 0.00 94 1016.0
20260504183348 63 96 0.0 0.0 0.00 0.00 0.00 94 1016.0
20260504182848 63 96 0.0 0.0 0.00 0.00 0.00 93 1016.0
20260504182550 63 96 0.0 0.0 0.00 0.00 0.00 93 1015.8
20260504182348 63 96 0.0 0.0 0.00 0.00 0.00 93 1016.0
20260504181848 63 96 0.0 0.0 0.00 0.00 0.00 93 1015.9
20260504181348 63 96 0.0 0.0 0.00 0.00 0.00 93 1015.8
20260504180848 63 96 0.0 0.0 0.00 0.00 0.00 93 1015.9
20260504180348 63 96 0.0 0.0 0.00 0.00 0.00 93 1015.8
20260504175848 63 96 0.0 0.0 0.00 0.00 0.00 92 1015.8
20260504175348 63 96 0.0 0.0 0.00 0.00 0.00 93 1015.8
20260504174848 63 96 0.0 0.0 0.00 0.00 0.00 93 1015.8
20260504174348 64 96 0.0 0.0 0.00 0.00 0.00 93 1015.7
20260504174201 64 96 0.0 0.0 0.00 0.00 0.00 93 1015.7
20260504173848 64 96 0.0 0.0 0.00 0.00 0.00 93 1015.7
20260504173348 64 96 0.0 0.0 0.00 0.00 0.00 93 1015.7
20260504172848 64 96 0.0 0.0 0.00 0.00 0.00 93 1015.7
20260504172759 64 96 0.0 0.0 0.00 0.00 0.00 93 1015.7
20260504172348 64 96 0.0 0.0 0.00 0.00 0.00 93 1015.7
20260504171848 64 96 0.0 0.0 0.00 0.00 0.00 93 1015.7
20260504171348 64 96 0.0 0.0 0.00 0.00 0.00 93 1015.8
20260504170848 64 96 0.0 0.0 0.00 0.00 0.00 93 1015.7
20260504170348 64 96 0.0 0.0 0.00 0.00 0.00 93 1015.9
20260504160348 65 96 0.0 0.9 0.00 0.00 0.00 93 1016.1
20260504150848 65 96 0.0 0.0 0.00 0.00 0.00 93 1016.4
20260504150348 65 96 0.0 0.9 0.00 0.00 0.00 93 1016.4
20260504140848 66 96 0.0 0.0 0.00 0.00 0.00 91 1016.9
20260504140552 66 96 0.0 0.0 0.00 0.00 0.00 91 1016.8
20260504140348 66 96 0.0 0.0 0.00 0.00 0.00 91 1016.8
20260504130348 66 96 0.0 0.0 0.00 0.00 0.00 90 1017.4
20260504110348 69 96 0.0 0.0 0.00 0.00 0.00 87 1017.7
20260504100349 71 96 0.0 0.9 0.00 0.00 0.00 84 1017.6
20260504081849 74 34 1.7 7.0 0.00 0.00 0.00 76 1016.3
20260504081440 74 76 1.7 4.3 0.00 0.00 0.00 75 1016.3
20260504081349 74 76 1.7 4.3 0.00 0.00 0.00 75 1016.3
20260504080849 74 65 1.7 5.2 0.00 0.00 0.00 75 1016.2
20260504080349 74 65 1.7 3.5 0.00 0.00 0.00 74 1016.1
20260504080252 75 63 1.7 4.3 0.00 0.00 0.00 74 1016.1
20260504070349 77 87 1.7 4.3 0.00 0.00 0.00 68 1015.4
20260504050349 84 55 2.6 5.2 0.00 0.00 0.00 55 1014.9
20260504045849 84 105 2.6 7.0 0.00 0.00 0.00 55 1014.9
20260504045349 84 115 1.7 5.2 0.00 0.00 0.00 54 1014.9
20260504044849 83 122 1.7 3.5 0.00 0.00 0.00 55 1015.0
20260504044349 83 124 1.7 4.3 0.00 0.00 0.00 56 1015.0
20260504043849 83 125 2.6 6.1 0.00 0.00 0.00 56 1015.0
20260504043349 82 105 3.5 7.0 0.00 0.00 0.00 55 1015.0
20260504042947 82 126 3.5 7.8 0.00 0.00 0.00 57 1015.0
20260504042849 82 126 3.5 7.8 0.00 0.00 0.00 57 1015.0
20260504042349 82 124 2.6 9.6 0.00 0.00 0.00 57 1015.0
20260504041849 82 103 1.7 6.1 0.00 0.00 0.00 56 1015.0
20260504041349 82 64 1.7 5.2 0.00 0.00 0.00 56 1015.0
20260504040852 82 79 2.6 5.2 0.00 0.00 0.00 57 1015.1
20260504040833 81 78 2.6 7.0 0.00 0.00 0.00 57 1015.1
20260504040349 81 76 2.6 7.8 0.00 0.00 0.00 58 1015.1
20260504035849 81 78 2.6 7.0 0.00 0.00 0.00 57 1015.1
20260504035349 81 119 1.7 7.0 0.00 0.00 0.00 58 1015.1
20260504034849 80 80 0.9 2.6 0.00 0.00 0.00 59 1015.2
20260504034349 81 80 1.7 3.5 0.00 0.00 0.00 59 1015.3
20260504033849 81 81 2.6 7.0 0.00 0.00 0.00 59 1015.3
20260504033539 82 109 1.7 5.2 0.00 0.00 0.00 57 1015.4
20260504033349 82 69 2.6 6.1 0.00 0.00 0.00 57 1015.3
20260504032849 82 38 2.6 5.2 0.00 0.00 0.00 57 1015.4
20260504032349 82 109 1.7 5.2 0.00 0.00 0.00 57 1015.4
20260504031849 82 105 1.7 8.7 0.00 0.00 0.00 57 1015.4
20260504031349 81 120 2.6 4.3 0.00 0.00 0.00 59 1015.5
20260504031246 81 121 2.6 7.8 0.00 0.00 0.00 59 1015.6
20260504030849 81 121 2.6 7.8 0.00 0.00 0.00 59 1015.6
20260504030349 82 113 2.6 6.1 0.00 0.00 0.00 59 1015.6
20260504025849 82 109 2.6 7.0 0.00 0.00 0.00 58 1015.7
20260504025349 83 111 2.6 7.0 0.00 0.00 0.00 57 1015.8
20260504024849 84 113 2.6 6.1 0.00 0.00 0.00 56 1015.8
20260504024646 84 44 2.6 8.7 0.00 0.00 0.00 57 1015.8
20260504024349 84 44 2.6 8.7 0.00 0.00 0.00 57 1015.8
20260504023849 83 54 1.7 5.2 0.00 0.00 0.00 58 1015.9
20260504023349 82 59 1.7 10.4 0.00 0.00 0.00 58 1016.0
20260504022849 81 105 2.6 7.0 0.00 0.00 0.00 60 1016.1
20260504022349 80 127 1.7 7.8 0.00 0.00 0.00 61 1016.2
20260504021849 79 129 0.9 2.6 0.00 0.00 0.00 63 1016.4
20260504021643 79 130 0.9 2.6 0.00 0.00 0.00 63 1016.5
20260504021349 79 130 0.9 2.6 0.00 0.00 0.00 63 1016.5
20260504020849 78 130 0.9 1.7 0.00 0.00 0.00 65 1016.6
20260504020544 79 126 1.7 4.3 0.00 0.00 0.00 63 1016.9
20260504020349 79 130 0.9 2.6 0.00 0.00 0.00 64 1016.7
20260504015849 79 130 1.7 2.6 0.00 0.00 0.00 64 1016.8
20260504015349 79 126 1.7 4.3 0.00 0.00 0.00 63 1016.9
20260504014937 81 122 1.7 5.2 0.00 0.00 0.00 61 1017.2
20260504014849 79 131 1.7 4.3 0.00 0.00 0.00 63 1017.0
20260504014349 80 124 2.6 6.1 0.00 0.00 0.00 62 1017.0
20260504013849 81 122 1.7 5.2 0.00 0.00 0.00 61 1017.2
20260504013434 81 117 1.7 6.1 0.00 0.00 0.00 61 1017.3
20260504013349 81 117 1.7 6.1 0.00 0.00 0.00 61 1017.3
20260504012849 81 117 1.7 3.5 0.00 0.00 0.00 62 1017.4
20260504012436 80 117 1.7 5.2 0.00 0.00 0.00 63 1017.6
20260504012349 81 117 1.7 3.5 0.00 0.00 0.00 62 1017.4
20260504011849 80 116 1.7 3.5 0.00 0.00 0.00 62 1017.5
20260504011349 80 117 1.7 5.2 0.00 0.00 0.00 63 1017.6
20260504011046 80 119 1.7 5.2 0.00 0.00 0.00 63 1017.7
20260504010849 80 119 1.7 5.2 0.00 0.00 0.00 63 1017.7
20260504010349 80 117 1.7 5.2 0.00 0.00 0.00 64 1017.8
20260504005849 80 117 1.7 6.1 0.00 0.00 0.00 64 1017.9
20260504005349 80 115 1.7 6.1 0.00 0.00 0.00 65 1017.9
20260504004849 80 103 2.6 6.1 0.00 0.00 0.00 64 1018.0
20260504004838 80 169 1.7 5.2 0.00 0.00 0.00 65 1018.1
20260504004349 80 169 1.7 5.2 0.00 0.00 0.00 65 1018.1